Wind_Speed
27 25 24 25 26 27 28 28 28 28 29 31 32 34 34 34 34 34 34 32 32 32 31 30 29 28 29 30 30 30 30 29 28 27 27 26 24 21 21 22 22 20 20 20 19 19 18 16 16 16 15 15 14 13 13 11 11 12 12 10 6 5 7 7 8 10 10 8 7 6 5 4 3 5 6 5 6 6 8 8 8 10 12 13 13
28 26 26 27 27 28 29 29 29 29 30 31 32 33 34 34 35 36 35 35 35 34 33 32 31 30 29 29 30 30 30 29 29 28 27 27 24 23 23 22 22 20 20 21 20 19 18 18 17 17 16 15 14 13 13 12 11 13 12 8 6 6 7 7 8 9 8 7 7 5 5 4 4 6 7 5 5 7 9 9 8 11 12 13 13
26 25 28 29 28 28 29 30 30 30 30 30 31 32 34 36 37 37 36 37 37 36 36 35 33 31 30 29 28 28 28 27 27 27 27 26 24 24 24 23 22 21 19 19 19 19 19 19 17 16 15 15 14 14 13 11 11 12 11 9 8 8 8 7 7 8 7 8 8 4 3 2 2 4 6 5 6 7 9 8 8 11 13 13 13
26 24 27 30 29 29 30 31 31 32 32 31 31 32 33 36 37 37 38 38 39 38 38 36 34 33 31 30 29 27 27 26 26 27 27 26 25 26 26 25 23 21 19 18 18 18 18 18 16 15 14 15 15 12 11 11 10 10 10 9 8 8 8 8 9 9 8 7 6 5 5 2 1 3 5 6 7 9 8 8 9 12 13 13 13
28 25 25 28 30 30 31 31 31 32 33 33 32 32 32 33 34 35 37 39 40 40 39 37 35 35 34 33 32 31 30 28 28 29 30 29 29 29 28 25 23 22 22 20 19 18 18 17 15 15 15 15 15 12 11 12 9 8 9 9 8 8 9 10 11 10 8 6 5 5 4 1 2 4 5 5 7 9 9 10 12 13 13 14 14
30 28 26 26 27 30 31 32 32 33 34 34 33 32 31 31 31 32 35 38 39 40 39 37 37 38 37 36 36 35 34 33 32 32 32 31 31 30 29 26 24 24 23 22 21 20 20 18 15 15 15 16 16 13 14 14 11 10 11 11 11 11 11 12 13 12 10 8 5 4 4 3 3 5 5 4 6 7 7 9 11 13 14 14 15
32 30 29 28 27 28 30 31 33 34 34 34 33 32 31 31 32 33 34 36 37 38 38 38 39 40 39 38 38 37 37 35 34 33 32 32 31 30 28 26 25 23 22 22 22 22 21 19 17 15 15 16 16 16 16 15 13 12 13 13 13 13 13 13 14 13 12 8 5 4 2 1 2 4 4 4 6 8 7 7 10 13 13 14 15
32 31 30 30 30 29 29 29 30 32 32 32 32 31 31 32 33 33 33 34 35 35 36 38 40 41 41 40 40 40 38 36 34 33 32 32 30 28 26 24 22 21 21 22 22 21 20 20 19 17 17 18 16 16 17 16 16 16 15 14 14 14 14 14 14 13 11 7 3 1 1 3 4 5 5 5 6 9 9 10 12 13 14 14 15
31 31 30 30 30 30 29 27 26 28 30 30 30 30 31 32 32 33 34 34 35 34 35 37 39 41 42 42 42 42 40 38 35 34 33 31 29 27 25 24 22 21 22 22 22 21 19 20 21 19 20 19 17 17 17 17 18 18 17 15 14 14 14 13 13 11 8 5 2 1 2 3 4 6 7 7 8 9 9 12 15 15 16 16 15
31 32 31 30 29 29 28 27 24 27 30 29 30 31 32 32 33 34 34 35 35 34 35 36 38 39 41 43 43 42 41 39 37 36 35 32 29 27 25 24 23 23 23 22 22 21 20 21 21 21 22 21 19 20 20 19 19 19 19 17 16 15 13 11 10 8 7 4 1 1 2 3 5 6 7 8 10 11 11 13 16 17 18 17 17
29 31 33 32 30 29 29 28 25 26 30 31 31 32 33 34 34 35 35 35 35 35 36 37 38 39 40 42 42 42 41 40 39 39 37 34 31 29 26 24 24 25 24 22 22 22 21 21 21 22 23 22 20 21 22 21 21 21 20 18 15 14 12 10 9 9 7 4 1 1 2 3 5 6 7 9 11 12 14 15 17 19 20 19 19
28 30 32 32 33 32 30 29 27 27 30 33 33 33 34 34 34 35 35 36 36 36 38 39 40 40 40 40 41 41 40 41 41 39 38 36 34 31 28 26 25 25 24 23 23 23 23 23 21 23 24 23 23 23 24 23 21 19 18 16 13 12 11 11 11 9 6 3 1 1 2 3 5 6 8 10 11 13 15 16 18 20 21 21 21
31 31 31 31 32 33 33 31 30 30 30 32 34 34 35 35 34 35 35 36 36 37 38 40 41 41 40 40 40 40 40 41 40 38 38 37 35 32 30 28 27 27 26 25 25 25 25 24 22 23 24 25 26 27 26 25 21 17 15 14 13 13 13 12 10 8 5 3 1 1 2 4 5 7 9 10 12 14 16 18 19 21 22 23 23
29 31 32 31 31 31 34 34 33 33 32 32 34 35 36 36 35 35 35 35 36 36 37 38 40 41 40 40 40 40 40 41 40 38 38 37 35 33 31 29 28 28 27 27 26 26 25 24 23 23 24 25 26 28 27 25 21 17 15 14 15 15 14 12 9 7 5 3 2 1 3 4 6 7 9 11 13 15 17 18 20 22 23 23 24
26 28 31 32 31 30 33 35 35 35 35 35 36 36 38 38 37 36 36 36 36 36 36 37 39 41 41 41 41 40 40 40 40 39 38 37 36 34 32 30 28 28 28 27 26 26 25 25 25 24 23 23 23 23 23 22 20 17 16 17 16 15 13 11 9 6 5 3 2 2 3 5 6 8 9 12 14 15 17 18 19 22 23 22 24
28 29 29 31 32 31 32 34 36 37 38 39 39 39 39 39 39 38 37 36 36 36 37 37 38 40 42 42 41 40 40 40 40 39 38 37 36 35 32 30 28 27 28 27 26 26 26 26 26 25 23 22 20 20 20 20 19 18 18 18 17 15 13 10 8 6 4 3 2 3 3 5 6 8 10 12 14 15 16 17 18 20 21 22 24
33 32 30 30 31 32 32 32 33 35 37 38 39 39 39 40 42 42 40 39 38 38 38 38 38 39 41 42 41 40 39 39 39 38 38 37 36 34 32 29 28 28 28 28 27 27 27 28 27 25 23 22 21 21 20 20 20 20 19 18 16 14 12 10 8 6 5 4 3 3 3 5 7 9 11 13 14 15 16 17 18 19 19 21 23
35 36 34 30 28 30 31 31 30 31 31 32 32 34 36 38 40 43 44 43 40 40 40 39 39 39 40 41 41 41 39 38 37 37 36 35 35 34 31 29 29 29 28 30 30 27 27 28 28 25 23 23 23 22 22 22 21 21 20 19 16 14 12 10 9 7 5 4 3 3 4 6 8 10 12 13 14 15 15 16 17 18 19 20 22
29 33 34 31 27 26 27 29 28 28 27 28 28 30 33 35 37 41 44 45 43 42 42 40 39 39 38 39 40 40 39 38 36 35 35 35 34 33 31 30 31 29 30 33 32 27 26 27 27 25 24 24 24 23 24 23 22 22 21 19 16 14 12 10 9 8 6 4 4 4 5 7 9 11 12 13 14 14 15 16 17 18 19 21 22
21 25 29 30 28 25 24 24 25 26 26 26 27 29 31 34 36 38 42 45 45 44 43 40 39 39 38 37 37 38 39 37 35 35 34 34 33 32 32 32 31 31 33 34 30 25 27 28 26 25 24 25 25 25 25 24 23 22 21 18 16 15 13 11 10 8 6 5 4 4 6 8 9 10 11 12 13 14 15 15 17 18 19 21 23
15 17 22 26 27 25 24 24 23 24 26 26 27 28 30 31 34 36 39 42 44 44 42 40 39 39 38 37 36 37 37 35 35 34 33 33 32 32 32 32 32 33 34 33 28 26 30 31 28 28 27 25 25 26 25 24 24 23 21 19 17 15 13 11 10 8 6 6 5 5 6 8 9 10 11 12 13 13 14 15 16 18 20 21 23
15 15 17 21 23 24 25 26 25 25 26 26 26 26 27 28 30 32 35 37 38 39 38 38 38 38 38 37 36 35 35 34 34 34 33 33 32 32 32 32 33 34 33 32 29 27 28 28 28 30 29 26 26 26 25 25 25 23 21 20 18 16 14 12 10 8 7 6 5 6 7 8 9 10 11 11 13 13 14 16 16 18 19 21 23
16 17 17 18 20 21 23 25 26 26 25 25 25 24 24 24 25 27 29 31 32 33 34 35 36 37 38 37 36 35 34 34 34 34 34 33 32 33 33 33 34 33 32 30 28 27 27 26 26 29 28 27 27 27 26 26 25 23 21 20 18 16 14 12 10 9 8 6 6 7 7 8 9 10 10 11 12 13 15 16 16 18 19 21 23
14 16 16 16 17 19 20 23 24 23 23 22 21 21 20 20 21 23 25 26 28 29 31 32 34 35 36 36 36 35 34 34 34 34 34 34 33 33 33 33 34 33 32 29 29 31 29 27 27 28 27 28 28 28 27 27 26 23 21 19 18 16 14 12 11 10 8 7 7 7 8 8 9 10 11 12 12 13 14 16 17 18 19 21 23
11 12 13 14 15 16 17 19 20 19 18 18 17 17 17 18 19 21 22 24 25 26 28 29 31 32 33 34 34 34 34 34 34 34 34 34 33 34 34 34 34 35 33 29 32 35 32 29 29 28 27 29 29 28 28 28 26 24 21 20 18 16 15 13 12 10 8 7 8 8 8 8 9 10 11 12 13 14 14 15 17 18 19 21 22
13 11 11 11 12 13 13 14 14 15 14 15 16 16 17 19 20 21 23 24 25 27 28 29 30 30 31 32 32 32 32 32 33 34 33 33 34 34 34 35 36 37 33 29 32 36 34 32 30 28 28 30 30 29 29 28 26 24 23 21 19 17 15 14 12 10 8 8 8 8 8 8 9 10 11 12 13 14 15 15 17 18 19 20 22
16 13 10 9 9 10 10 10 12 12 13 15 16 17 19 20 20 22 23 24 25 26 28 29 30 30 30 30 30 31 31 32 33 33 32 33 33 33 36 38 37 35 31 30 34 36 35 34 30 28 30 30 30 31 30 28 26 24 23 21 19 18 16 14 12 10 9 9 8 8 8 8 9 10 11 12 13 14 15 16 17 18 19 20 21
16 14 10 7 5 7 9 10 11 12 14 15 16 18 19 19 20 21 22 23 23 24 25 27 28 30 31 31 30 30 31 32 32 32 32 33 32 33 36 37 34 32 31 32 36 37 35 33 29 29 31 31 31 31 30 28 26 24 22 21 19 18 16 14 12 10 10 9 8 7 8 8 9 10 11 12 13 14 15 16 17 18 19 20 21
16 14 10 6 4 4 7 9 11 13 14 15 16 17 18 19 19 19 20 20 21 22 24 25 27 29 30 30 31 31 31 31 31 31 31 31 31 32 34 35 34 32 31 32 35 34 32 30 30 31 33 33 32 31 29 28 26 24 23 21 19 18 16 14 12 11 10 9 8 8 8 8 9 10 11 11 12 13 15 16 17 18 19 20 21
17 15 11 6 4 3 4 7 10 12 14 15 16 16 17 17 17 18 18 18 19 20 21 23 25 26 27 28 29 28 28 28 28 28 28 29 31 31 32 35 35 31 28 31 34 31 29 29 31 33 34 34 32 31 28 26 25 23 22 21 19 18 16 14 12 11 10 8 8 8 8 8 9 10 11 11 12 14 15 16 17 18 19 20 20
18 16 13 10 6 6 6 6 8 10 12 14 15 16 16 16 16 16 16 17 18 18 18 19 21 22 23 24 24 23 24 24 24 26 27 29 30 31 32 34 33 27 27 30 31 29 29 30 33 35 35 34 32 30 28 26 25 24 22 21 19 18 15 13 12 10 9 8 7 7 8 8 9 10 11 12 13 14 15 16 17 18 19 19 20
21 19 16 14 13 12 12 11 11 12 12 13 13 15 16 15 15 15 15 17 17 16 16 17 18 19 20 20 21 22 23 25 26 28 29 28 28 30 33 33 30 28 29 30 30 30 30 32 35 36 35 33 32 30 29 27 26 25 23 21 19 17 15 13 11 10 9 8 7 7 8 9 9 10 11 12 13 14 15 16 17 17 18 18 19
20 18 18 19 20 20 19 19 17 15 14 13 13 14 15 14 14 14 15 16 16 15 16 17 17 17 18 19 21 21 22 24 25 27 28 26 26 30 31 30 29 30 31 31 31 31 32 34 37 36 34 33 32 30 30 28 27 25 23 21 19 16 14 13 11 10 9 8 7 7 8 9 10 11 12 12 13 14 15 16 16 17 17 17 17
21 20 20 23 27 26 23 23 20 16 14 13 14 14 14 15 15 15 16 16 16 16 16 17 17 18 19 21 22 23 23 23 24 25 27 27 29 31 31 31 32 32 33 33 32 32 34 37 37 36 34 33 32 31 30 28 26 25 22 21 18 16 14 12 11 10 8 7 6 7 8 10 11 12 12 13 13 14 15 16 16 16 16 16 16
30 28 25 26 28 27 23 22 19 16 14 14 14 14 14 16 16 16 17 17 17 17 17 18 19 20 22 24 25 26 25 25 25 26 27 28 29 31 32 33 33 33 33 33 33 34 37 38 37 35 34 33 32 31 29 28 26 24 22 20 18 16 14 12 11 9 8 6 6 7 9 11 12 13 13 13 14 14 15 16 16 15 15 16 16
35 32 28 27 27 26 23 20 17 14 13 13 13 14 15 15 16 16 17 17 18 19 18 18 20 22 25 27 28 29 29 29 29 29 30 31 32 34 34 33 32 32 32 33 34 36 37 38 37 35 34 33 32 30 29 28 26 24 22 20 17 16 14 12 11 9 7 5 6 8 11 12 13 14 14 14 15 15 15 16 15 15 15 15 16
34 33 31 29 27 25 23 18 14 13 13 12 12 13 14 15 16 16 17 18 19 20 19 18 19 22 25 27 29 30 30 31 32 33 34 34 34 34 32 31 31 32 33 34 36 38 38 37 36 35 34 33 32 31 30 28 26 24 22 19 17 16 14 13 11 8 6 5 7 9 11 13 14 14 15 15 15 16 16 16 16 15 15 16 15
35 35 33 30 27 25 22 18 16 17 16 14 12 13 14 15 16 16 17 19 20 20 20 19 19 20 22 24 26 27 28 28 29 31 31 31 31 31 30 31 32 33 34 35 37 38 38 37 36 35 34 33 31 31 30 28 26 24 21 19 18 16 14 13 10 8 6 6 8 10 12 13 14 15 16 16 16 16 16 16 16 16 16 16 16
37 36 34 32 29 26 23 21 21 21 19 16 14 13 14 15 15 16 17 18 19 18 18 18 18 18 19 21 24 25 25 26 27 28 29 29 29 30 30 32 33 33 35 36 38 38 38 37 36 35 34 33 31 30 29 27 26 24 22 20 18 16 14 12 10 8 7 8 9 11 12 14 15 16 16 16 17 17 17 17 17 17 17 17 16
31 32 33 33 30 28 26 24 23 22 19 16 14 13 13 13 14 16 17 17 16 16 17 18 18 19 20 21 23 24 24 25 26 27 28 29 29 30 31 33 34 34 36 37 38 38 38 37 37 36 35 33 31 30 29 27 25 24 22 20 18 16 14 12 10 9 9 9 10 11 13 15 16 17 17 17 18 17 17 17 17 18 18 17 16
21 23 26 28 27 26 25 23 22 21 17 15 14 13 13 12 13 15 15 15 15 16 18 20 20 21 22 22 23 24 24 25 25 26 28 29 29 31 32 33 35 36 37 39 39 39 39 38 38 37 35 34 32 30 29 27 26 24 22 20 18 16 14 12 11 11 10 10 10 12 14 16 17 18 18 18 18 18 17 17 18 18 18 17 17
12 11 13 16 16 16 16 16 16 15 13 14 14 13 13 13 13 13 13 14 16 17 18 20 22 23 23 23 24 25 25 26 26 27 28 29 30 32 33 34 36 37 39 40 40 40 40 39 38 37 36 34 33 31 30 28 26 24 22 20 18 16 14 13 13 12 11 11 11 12 15 17 18 18 19 19 18 17 17 18 18 18 18 17 16
4 4 6 7 7 9 10 11 12 12 12 12 13 13 13 13 12 12 13 15 16 16 18 20 22 23 24 24 25 25 26 27 28 28 30 31 32 33 34 36 37 38 40 41 41 41 41 40 39 38 37 35 33 32 31 29 27 25 23 21 19 17 16 15 14 13 12 11 12 14 17 18 19 19 19 19 18 17 17 18 18 18 17 17 16
5 5 8 9 9 10 11 10 10 10 9 9 8 8 8 8 9 10 12 13 14 16 18 19 21 23 24 25 25 26 27 28 28 29 30 31 32 33 34 36 38 39 41 42 42 42 42 41 40 39 37 36 35 33 32 30 28 26 23 21 20 18 17 16 15 14 13 12 14 17 19 20 20 20 20 19 18 18 18 18 18 17 16 16 16
7 9 10 11 12 12 12 11 11 10 8 6 5 3 2 3 4 6 8 10 11 13 15 16 18 20 21 23 24 25 26 26 27 28 29 30 32 33 35 37 38 40 42 42 43 43 43 42 40 39 37 36 35 34 33 31 29 27 24 22 20 18 17 17 17 16 14 14 16 20 22 22 22 21 20 19 18 18 18 18 17 16 16 16 16
10 12 12 13 15 15 15 14 13 12 10 9 7 5 3 1 1 2 4 7 8 11 12 14 15 16 17 19 21 22 24 24 25 26 28 29 31 32 34 37 39 41 42 43 43 43 42 41 40 38 37 37 36 35 33 31 30 28 26 23 21 19 19 18 17 17 16 17 19 22 24 24 23 22 21 20 19 18 18 17 16 16 16 15 16
13 14 14 15 16 15 15 14 13 12 11 9 8 6 4 2 0 2 4 5 6 8 10 11 13 15 16 17 18 19 21 22 24 26 27 29 30 32 34 37 39 41 42 43 43 43 42 41 40 39 38 38 37 35 34 32 31 29 26 24 21 20 19 18 19 20 19 19 22 25 25 24 24 23 22 21 20 18 17 17 16 16 16 15 16
15 15 15 16 16 14 14 14 12 11 10 9 8 7 5 3 1 1 3 5 6 7 8 9 11 12 14 15 16 17 19 20 22 24 26 28 30 32 34 36 38 39 41 42 43 43 42 41 40 40 39 38 38 37 35 33 32 30 27 24 21 19 18 19 21 23 21 21 24 26 26 25 24 24 24 22 20 19 18 17 17 16 16 16 16
16 16 16 16 15 15 14 13 12 11 10 8 8 7 6 5 3 1 3 4 6 7 8 9 10 11 12 13 15 16 17 18 20 22 24 26 28 30 32 34 35 37 39 40 41 41 41 40 39 39 38 38 38 36 33 32 31 29 26 23 20 19 20 23 25 25 23 23 26 28 27 25 25 25 25 22 20 19 18 18 17 16 16 17 17
17 17 18 17 16 15 14 12 12 11 10 9 8 8 6 6 4 4 3 4 6 7 9 10 10 10 11 12 12 14 15 16 18 20 22 24 27 29 31 33 35 37 39 40 41 40 39 38 38 38 37 36 34 31 29 31 31 29 26 23 21 23 25 28 29 28 26 26 28 29 28 27 26 26 25 22 20 20 19 18 18 17 17 17 17
18 19 18 17 17 16 15 13 12 12 11 10 9 8 7 6 5 5 5 6 6 7 9 10 10 10 11 11 12 12 13 14 16 18 20 23 25 28 31 33 35 37 39 40 41 40 39 39 38 38 37 36 33 30 29 31 32 30 27 27 27 29 31 32 32 30 28 28 30 30 29 28 27 26 24 22 21 20 19 19 18 18 18 18 18
Wind_Direction
250 247 247 244 241 241 242 241 237 233 232 232 231 230 230 228 228 230 229 229 229 228 228 228 228 229 230 232 234 235 237 238 241 243 242 240 239 240 244 247 248 249 251 253 253 255 256 253 252 255 260 261 263 270 275 276 277 278 284 282 278 301 297 277 279 294 304 307 317 333 3 14 58 76 54 58 61 47 50 52 38 24 22 26 26
252 248 245 243 240 239 239 240 238 235 232 232 231 230 231 230 229 230 230 231 231 231 231 230 230 232 233 235 237 238 239 239 242 244 245 245 243 242 244 247 249 249 253 254 254 256 255 252 252 253 257 261 262 267 272 273 272 273 275 268 264 289 287 273 285 304 308 312 324 342 7 24 85 70 52 64 53 38 45 45 32 22 19 23 25
254 250 245 242 240 240 239 239 239 237 235 234 233 231 232 232 232 231 231 232 233 233 234 233 232 234 237 240 243 245 245 244 244 245 246 245 243 242 243 245 246 248 251 254 255 256 255 254 255 254 254 258 261 263 265 265 270 274 268 251 252 268 275 278 289 300 306 320 334 328 316 351 85 47 41 64 48 33 37 38 30 20 16 17 21
254 250 246 242 240 240 240 240 239 239 238 236 234 233 233 234 234 233 233 234 235 235 235 235 236 238 239 242 246 248 248 246 243 242 242 241 239 239 239 238 241 245 246 249 253 257 258 256 254 252 250 252 254 255 259 263 273 278 263 249 252 257 267 281 285 293 303 316 325 305 311 1 120 352 30 57 39 27 24 27 26 18 12 11 16
251 249 247 243 240 240 241 242 242 241 240 239 238 236 236 238 238 237 236 237 237 237 237 237 238 239 239 241 244 245 245 242 238 237 237 237 237 238 238 236 238 244 245 247 250 253 256 255 252 248 245 247 249 251 258 258 261 273 261 246 249 256 270 283 285 287 295 303 304 289 302 312 270 342 36 53 30 24 13 11 15 12 10 7 10
251 249 247 244 241 240 241 242 243 243 242 241 241 241 241 242 242 240 239 239 239 238 238 238 239 240 240 239 240 242 242 240 237 236 236 235 235 236 236 233 233 240 244 245 247 247 248 250 248 243 243 248 248 252 259 251 245 261 262 250 251 259 266 273 275 279 290 298 285 255 240 225 278 348 24 20 12 21 13 6 2 0 4 4 3
253 250 248 246 244 243 243 242 242 242 242 242 243 243 243 243 243 242 241 241 240 240 239 238 238 240 241 241 242 243 244 244 242 240 238 237 236 236 237 236 234 237 238 240 244 244 243 242 243 244 248 251 249 249 252 248 246 256 259 254 253 255 255 257 263 276 289 290 267 240 233 234 335 354 2 352 355 3 4 1 358 355 358 0 359
254 252 249 247 247 247 248 247 245 243 242 242 242 242 242 242 243 243 243 243 242 241 240 239 239 240 241 241 243 244 244 246 246 245 241 238 237 236 238 239 237 233 231 235 240 243 242 237 238 246 251 251 251 248 245 245 248 250 252 252 246 242 242 248 261 276 280 269 242 237 344 7 0 356 356 353 346 347 349 351 357 359 357 1 4
253 254 252 249 249 250 251 252 249 243 241 240 239 239 240 240 242 243 244 244 244 243 241 240 239 240 241 241 242 243 244 244 245 245 241 238 236 236 236 236 235 233 233 237 241 244 243 237 237 244 246 247 250 247 243 244 245 245 248 245 236 235 241 249 261 265 249 234 229 326 8 7 358 353 354 352 344 343 344 343 349 357 359 2 6
249 252 255 252 250 250 250 250 249 242 238 237 237 237 238 239 240 241 243 244 244 243 242 241 240 239 240 240 241 242 243 242 242 242 240 236 234 233 232 232 232 233 234 237 242 246 245 241 240 239 239 244 248 244 240 242 245 247 246 240 236 243 250 250 247 233 213 204 197 5 2 357 352 351 349 346 342 342 343 343 346 353 356 357 1
249 251 254 253 250 250 247 245 244 241 238 236 235 236 238 239 240 241 242 243 244 244 242 242 241 239 239 239 240 241 242 241 240 240 239 237 234 231 230 230 231 232 234 236 241 246 246 244 241 237 237 239 241 238 236 242 250 247 241 240 244 248 244 229 212 200 194 193 190 347 352 348 347 346 343 341 341 342 343 344 346 347 349 351 355
251 249 251 250 248 247 246 244 242 240 239 236 235 236 237 238 239 240 241 241 242 242 242 241 241 241 240 240 240 241 241 241 241 240 240 238 236 233 231 232 232 233 234 237 240 243 244 245 242 236 236 235 233 233 236 246 250 241 237 243 244 231 214 201 192 190 192 193 200 315 339 338 339 339 339 339 340 341 341 343 344 343 345 346 347
249 249 250 250 248 246 245 245 242 241 240 238 237 236 236 237 237 238 239 240 240 241 242 241 241 242 242 241 241 241 241 241 242 241 240 240 239 237 235 234 235 234 233 236 240 242 245 248 245 238 238 238 236 235 238 245 244 235 236 237 222 204 194 189 187 189 191 193 208 293 327 331 335 336 337 338 339 340 340 340 340 340 342 343 343
248 252 252 251 251 248 245 244 243 242 241 240 238 237 237 236 236 237 238 238 239 240 242 242 242 242 242 242 242 241 240 241 242 241 240 240 239 238 237 236 238 239 237 237 239 243 246 247 247 245 245 243 241 239 238 238 236 230 226 216 201 193 188 187 188 190 192 198 211 283 319 327 332 334 335 337 339 340 339 338 339 339 340 341 341
255 258 256 253 252 248 245 243 242 242 242 241 240 238 237 236 236 237 237 238 238 239 242 243 242 241 240 241 241 241 240 240 241 240 239 239 239 239 238 238 240 241 242 240 238 240 242 241 244 247 248 247 242 236 229 226 223 216 208 200 193 190 188 189 191 191 196 204 230 283 314 326 329 333 336 337 338 337 337 337 338 340 341 339 338
258 261 261 257 253 250 247 244 243 243 243 243 243 241 239 237 236 236 237 238 237 237 240 242 242 240 239 239 239 239 239 239 239 238 238 238 238 239 238 239 240 239 243 243 239 238 238 236 239 243 248 247 235 221 216 215 210 203 198 194 191 189 190 192 193 195 203 211 247 288 311 323 327 333 335 335 335 334 335 335 335 338 339 337 336
262 261 263 261 256 253 251 248 245 245 245 246 247 246 245 242 239 237 236 236 235 235 236 239 240 240 240 239 238 237 237 237 238 237 237 236 237 238 237 237 237 237 239 240 239 239 235 233 235 241 244 237 221 212 211 208 201 196 194 192 190 190 192 193 195 201 211 221 254 287 306 321 328 331 331 330 332 332 332 332 332 334 334 334 335
270 267 267 267 264 259 254 251 248 247 248 249 250 250 249 246 243 239 237 235 234 232 232 235 238 239 240 239 238 237 237 237 237 236 235 234 234 234 232 231 233 235 235 236 238 239 234 231 233 238 236 222 211 208 205 200 195 193 192 190 190 192 195 196 198 205 215 229 254 283 305 321 326 326 326 328 329 329 328 328 328 328 329 330 331
273 270 267 267 272 270 263 257 254 253 254 254 252 251 249 247 244 240 236 234 233 231 231 232 235 237 239 240 238 237 237 236 235 235 233 231 231 230 228 227 228 230 230 233 239 239 231 229 232 235 229 215 207 203 198 194 192 191 191 190 191 193 196 198 202 209 218 232 252 279 305 317 320 322 324 324 324 324 324 324 323 323 325 326 328
275 270 265 264 269 271 268 263 260 257 257 257 255 252 250 247 244 240 235 232 230 230 229 229 232 235 236 237 237 236 236 235 233 233 231 229 229 228 226 225 226 225 227 235 241 233 221 224 233 235 226 212 203 197 194 192 191 191 192 192 193 195 198 200 205 212 221 234 253 279 303 313 315 317 318 318 319 320 320 320 320 320 322 323 326
284 275 266 264 264 262 260 259 259 257 257 258 256 253 250 247 244 240 234 230 230 230 230 229 230 232 234 235 235 234 233 232 230 230 229 228 227 226 225 225 225 225 229 236 237 224 218 224 230 231 224 210 199 195 193 192 191 191 192 192 195 197 199 202 207 216 224 234 257 282 299 308 310 311 313 313 315 316 316 316 317 318 320 323 326
279 278 272 269 266 258 250 246 246 249 251 253 254 252 249 245 242 238 233 232 233 233 232 231 231 231 233 234 235 234 232 230 229 228 227 226 225 224 224 223 224 227 231 234 232 224 223 227 227 226 220 207 196 194 194 194 193 193 193 193 196 199 202 205 209 217 226 237 262 284 296 301 302 305 307 310 311 312 312 313 314 317 320 324 326
273 272 271 270 268 261 249 241 238 240 242 244 246 245 244 243 240 237 236 235 235 236 236 235 234 234 234 234 234 233 231 229 228 227 225 225 223 223 223 223 225 230 232 231 229 225 227 229 227 224 214 200 194 194 195 195 194 194 195 196 198 200 203 207 211 218 225 241 265 280 289 293 295 300 304 307 308 308 309 312 314 318 321 324 326
287 276 268 263 261 257 249 240 236 237 238 238 238 237 237 238 238 238 238 237 237 238 238 237 237 237 236 235 235 232 230 229 227 226 225 223 222 222 223 224 226 229 230 228 224 222 226 231 230 221 207 197 194 194 195 196 194 194 195 198 201 202 204 208 212 218 228 245 265 274 280 285 291 298 302 303 304 306 308 312 315 319 322 324 325
319 292 275 262 255 252 248 241 237 237 238 239 241 241 240 240 239 240 239 239 239 239 239 239 238 237 236 235 234 232 231 229 227 227 225 223 223 222 222 223 225 227 228 226 219 217 220 229 231 220 203 195 195 196 197 196 195 194 195 199 203 204 206 210 213 219 231 247 258 266 274 283 290 296 299 301 303 306 309 313 316 320 322 324 325
347 325 299 275 257 250 247 243 240 239 241 244 248 251 252 251 249 248 247 245 244 243 241 241 239 238 237 235 234 232 230 228 228 226 225 224 223 221 223 225 224 225 225 221 217 216 219 228 230 216 199 196 197 198 198 197 196 195 195 199 203 205 208 211 215 222 233 245 253 262 272 282 290 295 298 301 304 308 312 315 318 320 323 325 326
354 349 331 302 272 255 247 242 239 240 243 247 252 253 254 255 253 252 251 250 248 247 244 243 241 239 237 236 234 232 230 229 228 226 224 223 221 223 225 222 219 223 224 219 217 218 222 229 226 208 197 197 198 199 199 198 199 198 198 200 204 207 210 212 216 225 233 241 251 260 272 282 289 294 298 303 307 311 314 317 319 322 324 325 325
348 351 349 334 292 258 247 244 241 243 247 250 253 256 255 256 255 252 252 251 250 248 245 243 241 238 236 234 232 230 228 227 226 224 223 221 221 223 222 218 221 227 225 218 216 217 222 226 218 202 198 199 200 201 199 198 199 200 200 203 205 208 211 213 218 226 233 241 250 260 272 282 288 295 300 305 310 313 316 319 321 323 324 324 325
331 339 345 346 325 272 251 250 249 250 253 253 254 257 259 262 263 261 260 258 255 251 246 242 239 236 233 231 228 226 225 224 223 222 220 219 219 219 219 223 226 222 216 216 220 221 224 223 210 200 199 200 201 202 200 199 201 201 202 204 207 209 210 215 221 227 233 241 250 261 273 283 290 297 302 308 313 316 319 321 323 324 323 323 326
310 321 324 324 336 324 278 264 260 257 259 259 258 259 261 265 269 269 269 266 261 256 250 244 239 235 231 227 225 224 222 221 220 217 216 216 215 218 223 223 216 211 213 219 222 223 224 219 208 200 199 200 201 201 200 201 202 204 207 208 208 210 212 216 222 227 234 242 251 263 275 284 293 299 306 312 316 318 321 323 323 322 321 323 326
292 300 305 303 300 303 299 294 291 281 270 266 265 263 264 266 268 270 269 267 263 259 253 246 239 233 228 223 219 218 218 216 213 212 213 214 213 217 218 211 206 213 222 220 219 222 223 216 207 200 200 201 200 200 200 201 202 205 208 209 210 211 213 217 222 227 234 242 253 267 278 288 297 304 311 317 319 321 323 323 321 320 320 324 328
280 283 291 298 299 300 294 288 293 294 284 275 268 263 261 263 264 266 266 263 262 260 253 245 237 227 221 216 211 211 212 210 210 211 212 212 212 212 209 206 212 223 222 218 221 225 220 211 204 202 202 201 200 200 201 202 204 206 207 209 210 212 214 218 222 227 235 244 256 271 284 295 303 310 315 319 320 321 322 320 319 319 320 325 329
271 273 279 288 297 304 302 291 286 287 282 274 266 259 256 256 257 257 259 259 258 256 248 241 233 222 213 209 210 212 210 207 208 211 210 211 213 212 210 214 219 221 219 222 226 223 214 207 203 203 202 201 201 202 203 204 206 207 208 209 210 212 214 217 222 228 235 244 258 276 292 302 309 314 317 319 320 319 319 318 317 318 321 325 328
265 265 270 279 287 295 302 298 291 283 274 264 259 257 251 247 247 246 247 250 251 249 245 238 231 219 210 209 213 216 215 210 210 213 215 217 217 213 213 217 219 220 224 227 225 217 209 205 203 203 203 203 204 205 205 206 207 207 208 209 210 212 214 216 222 227 234 245 265 286 300 307 311 314 316 317 318 317 316 315 315 317 320 323 324
268 266 266 273 281 287 293 293 288 282 274 264 258 254 246 242 244 244 243 244 245 244 241 236 230 221 213 210 211 214 215 212 212 215 218 218 217 215 218 221 224 226 227 225 219 211 206 204 204 203 204 205 206 207 207 208 207 207 209 209 210 212 213 216 221 225 231 247 273 294 303 309 311 313 314 315 315 315 313 313 313 315 318 320 322
270 270 270 271 277 282 283 280 279 280 276 269 261 254 246 241 241 245 245 243 243 242 238 234 230 223 218 215 213 214 215 214 214 215 217 219 220 222 224 224 225 224 221 218 214 209 206 205 204 204 205 206 207 208 209 208 207 208 209 209 210 212 213 216 219 223 232 251 280 296 302 307 310 311 313 313 312 312 311 310 312 314 316 317 320
269 270 270 269 271 276 276 271 272 278 276 271 265 258 251 243 238 241 243 242 241 241 239 236 232 227 222 219 218 219 219 219 219 219 221 222 222 222 221 220 220 218 216 214 211 208 207 206 206 206 207 208 209 210 209 208 208 209 209 210 211 211 213 216 217 221 233 257 282 293 299 305 308 309 310 310 310 310 309 310 312 313 313 315 319
265 266 266 266 267 271 269 262 264 272 272 267 264 261 256 249 242 240 242 242 242 240 239 238 235 230 225 221 220 220 220 220 219 218 218 218 217 216 216 217 218 217 215 213 210 208 207 207 208 209 209 210 211 211 210 209 208 209 209 210 211 212 213 214 214 220 238 260 279 289 297 302 305 306 306 306 306 307 307 309 312 311 312 315 319
262 263 264 264 265 264 260 256 259 266 266 260 256 254 255 254 248 243 243 244 244 243 241 240 238 234 227 222 220 219 217 216 216 214 214 213 214 215 216 217 218 217 216 214 211 210 209 208 209 211 212 212 212 212 212 211 209 210 210 210 212 213 213 213 214 224 241 258 273 285 294 300 302 302 302 302 303 304 306 309 310 310 311 315 320
262 260 259 260 261 257 254 255 257 260 260 254 248 247 251 254 251 247 247 247 246 244 240 237 235 231 226 222 220 218 216 215 214 214 214 215 217 218 219 219 219 217 216 214 212 211 210 210 210 211 212 213 212 213 214 213 211 211 211 211 213 213 213 214 219 229 241 254 267 282 292 296 297 298 297 299 301 303 305 307 308 308 311 315 319
262 258 256 256 256 254 253 254 254 254 252 245 241 241 245 247 247 247 248 245 241 237 233 231 230 228 225 223 222 221 220 219 219 218 219 220 222 222 223 223 221 218 215 214 213 212 211 212 213 213 213 213 212 213 214 214 213 212 212 212 213 213 213 216 223 233 241 252 265 279 288 291 293 293 294 296 298 300 303 305 305 307 310 314 318
255 252 249 247 247 247 245 243 241 239 236 232 232 233 234 235 239 240 239 237 235 233 232 231 231 230 229 227 226 226 226 225 225 225 225 226 226 226 226 225 223 220 216 214 213 213 212 213 214 214 214 213 212 212 213 214 215 214 213 214 213 212 215 220 226 234 241 252 265 277 285 288 288 289 289 291 293 297 299 301 302 305 308 312 316
194 185 194 194 200 206 205 207 210 212 217 222 226 230 230 231 232 230 228 230 230 231 232 231 232 233 233 233 233 232 231 231 231 230 230 230 229 228 227 225 223 220 217 215 214 214 214 215 215 215 216 215 214 213 213 214 215 215 214 214 213 214 218 222 229 236 243 253 266 277 281 282 282 282 283 285 288 292 295 295 298 302 305 310 312
178 190 182 173 181 187 183 185 187 187 196 206 213 222 227 229 231 227 227 229 228 229 231 231 232 234 234 236 237 237 237 236 235 234 234 233 232 230 228 226 224 221 219 217 216 215 216 217 217 217 218 218 217 216 214 214 215 215 214 215 215 216 219 225 233 240 247 255 267 275 277 276 275 274 276 279 283 286 288 290 294 299 302 305 307
209 199 181 172 172 164 156 154 147 142 143 144 147 163 185 218 233 231 230 231 230 231 233 234 235 237 237 240 241 242 242 242 240 240 239 237 235 233 230 227 225 222 221 219 218 218 218 218 219 220 221 222 221 219 216 214 214 214 214 215 216 219 225 233 240 245 250 258 267 271 271 269 268 268 269 273 276 278 280 285 290 295 297 299 302
201 185 176 169 160 148 143 139 131 126 124 117 113 115 106 95 272 267 255 246 239 237 237 236 237 239 239 241 243 244 245 246 245 244 243 241 240 237 233 230 226 223 222 222 221 221 221 221 222 224 225 225 224 222 219 216 215 215 215 216 219 225 232 241 250 251 250 257 265 267 266 265 265 265 266 267 268 269 274 280 285 289 291 295 299
189 179 173 163 153 147 145 140 134 130 125 117 118 118 111 106 51 303 283 275 267 257 250 244 240 238 238 239 241 243 244 245 245 244 242 240 239 236 235 232 229 227 225 223 223 224 224 225 226 227 228 228 227 225 222 219 217 216 216 219 225 233 241 253 259 254 250 257 265 265 263 262 263 265 265 264 263 266 271 276 280 284 288 292 296
185 180 173 163 158 157 152 147 145 140 134 131 131 127 125 130 127 301 288 288 283 273 267 260 250 244 241 239 239 240 241 243 244 244 244 242 240 237 235 234 233 232 231 229 228 227 228 229 230 230 230 229 227 226 225 224 222 220 220 226 236 247 258 267 264 254 251 258 263 262 260 260 263 265 264 262 262 266 270 273 276 281 286 290 293
186 182 177 171 169 167 162 160 158 154 152 151 146 143 143 143 146 217 266 280 280 273 270 265 257 251 246 241 239 238 238 240 243 244 245 245 243 242 241 239 237 236 236 236 236 235 235 235 235 235 234 233 232 232 231 228 225 224 227 237 249 260 269 272 263 254 252 258 260 259 258 260 263 264 262 261 263 266 269 272 275 279 284 287 289
188 186 183 181 180 179 177 176 174 174 174 170 165 165 162 159 172 199 224 252 265 268 269 265 259 256 252 247 244 241 239 240 241 243 244 244 242 242 241 239 238 236 235 236 237 238 240 240 240 241 241 241 243 244 239 232 226 226 233 245 255 262 268 268 261 253 252 256 258 258 259 260 261 261 260 261 264 266 268 270 274 278 281 283 285
194 193 190 189 190 190 190 190 191 192 191 185 181 179 175 179 192 202 214 231 243 252 258 258 255 253 249 246 246 244 242 242 242 243 244 245 243 241 240 238 236 235 235 235 236 237 238 239 240 241 241 242 243 241 237 233 230 230 238 249 256 261 264 264 259 253 253 257 258 258 259 259 259 259 259 262 265 266 267 270 273 276 278 279 281
Height
1544 1546 1547 1547 1549 1550 1551 1552 1554 1555 1556 1557 1559 1560 1561 1563 1564 1565 1567 1568 1569 1570 1571 1571 1572 1573 1574 1574 1574 1575 1576 1577 1578 1578 1579 1579 1580 1581 1582 1582 1582 1583 1583 1584 1584 1584 1585 1585 1585 1586 1585 1585 1585 1586 1586 1585 1585 1585 1585 1584 1584 1584 1584 1583 1582 1582 1582 1582 1581 1580 1580 1579 1579 1579 1579 1579 1578 1578 1577 1577 1576 1576 1575 1574 1573
1542 1543 1543 1544 1545 1546 1547 1549 1550 1551 1552 1554 1555 1557 1559 1560 1561 1562 1564 1565 1565 1567 1568 1568 1570 1570 1571 1572 1572 1573 1574 1575 1575 1576 1577 1577 1578 1579 1579 1580 1580 1581 1581 1581 1582 1582 1583 1583 1583 1584 1584 1584 1584 1584 1584 1584 1584 1583 1583 1583 1583 1583 1583 1582 1581 1582 1581 1581 1580 1580 1580 1579 1579 1579 1579 1578 1578 1577 1577 1576 1576 1575 1574 1574 1573
1538 1540 1539 1540 1541 1542 1544 1545 1546 1547 1549 1551 1552 1554 1556 1556 1558 1559 1561 1562 1563 1564 1564 1565 1567 1568 1569 1570 1571 1571 1572 1573 1573 1574 1574 1574 1575 1576 1576 1577 1578 1579 1579 1579 1579 1580 1580 1581 1581 1582 1582 1582 1582 1582 1582 1582 1582 1582 1582 1582 1582 1582 1582 1581 1581 1581 1581 1580 1579 1579 1579 1579 1579 1579 1578 1578 1578 1577 1576 1576 1576 1575 1574 1573 1573
1535 1536 1536 1537 1538 1539 1540 1541 1542 1544 1546 1547 1548 1550 1552 1553 1554 1556 1558 1558 1560 1561 1561 1563 1565 1566 1567 1568 1568 1568 1569 1570 1571 1570 1570 1571 1572 1572 1573 1574 1575 1576 1577 1577 1577 1578 1578 1579 1579 1580 1580 1580 1580 1581 1581 1581 1581 1581 1581 1581 1581 1581 1581 1580 1580 1580 1580 1580 1579 1579 1578 1578 1578 1578 1578 1578 1577 1576 1576 1576 1576 1575 1574 1573 1572
1531 1532 1533 1533 1534 1535 1536 1538 1539 1541 1542 1543 1545 1546 1548 1550 1551 1553 1555 1555 1556 1557 1559 1561 1562 1562 1563 1564 1564 1564 1564 1565 1566 1566 1566 1568 1568 1569 1569 1570 1572 1573 1574 1575 1575 1576 1576 1576 1577 1578 1578 1578 1578 1579 1579 1579 1579 1580 1580 1580 1580 1580 1580 1579 1579 1579 1578 1578 1579 1578 1578 1578 1578 1577 1577 1577 1577 1576 1575 1575 1574 1574 1574 1572 1571
1527 1528 1529 1530 1531 1532 1533 1534 1535 1536 1538 1539 1541 1543 1545 1547 1548 1550 1551 1552 1553 1554 1556 1558 1558 1558 1559 1560 1560 1560 1560 1560 1561 1562 1563 1565 1565 1566 1567 1568 1569 1570 1571 1572 1573 1573 1573 1574 1575 1575 1575 1576 1576 1577 1577 1577 1577 1578 1579 1579 1579 1579 1579 1578 1578 1577 1577 1577 1577 1577 1577 1577 1577 1576 1576 1577 1577 1576 1576 1575 1574 1574 1573 1572 1571
1523 1524 1525 1526 1527 1528 1529 1530 1531 1532 1534 1536 1538 1540 1542 1543 1544 1545 1547 1547 1549 1551 1552 1554 1554 1554 1555 1556 1556 1556 1557 1558 1559 1560 1561 1562 1563 1564 1565 1565 1566 1567 1568 1569 1570 1570 1571 1572 1572 1573 1573 1573 1574 1575 1575 1575 1576 1576 1577 1577 1577 1577 1577 1577 1576 1576 1576 1576 1576 1576 1575 1575 1575 1575 1575 1575 1575 1576 1575 1575 1575 1574 1573 1572 1570
1519 1520 1521 1522 1523 1523 1525 1526 1527 1528 1531 1533 1535 1536 1537 1539 1540 1541 1543 1544 1545 1547 1549 1550 1550 1550 1551 1552 1553 1553 1554 1556 1557 1558 1559 1560 1561 1561 1562 1563 1564 1564 1565 1566 1566 1567 1568 1569 1570 1570 1571 1571 1572 1572 1573 1573 1574 1574 1575 1575 1575 1574 1575 1575 1575 1574 1575 1574 1574 1574 1574 1574 1573 1573 1573 1574 1574 1574 1574 1574 1574 1573 1571 1570 1569
1515 1516 1517 1518 1519 1519 1521 1522 1524 1525 1527 1529 1530 1532 1533 1534 1536 1537 1538 1539 1541 1543 1544 1545 1546 1547 1548 1548 1549 1549 1551 1553 1554 1555 1556 1557 1558 1558 1559 1560 1560 1561 1562 1563 1564 1564 1566 1566 1567 1568 1569 1569 1570 1570 1571 1571 1572 1572 1573 1573 1573 1572 1573 1573 1573 1573 1573 1573 1573 1573 1573 1572 1572 1572 1572 1572 1572 1572 1572 1571 1571 1570 1569 1568 1567
1510 1511 1512 1514 1515 1515 1517 1518 1520 1521 1523 1525 1526 1527 1529 1529 1531 1532 1533 1535 1536 1538 1540 1541 1542 1543 1543 1543 1544 1546 1547 1549 1550 1551 1552 1553 1554 1555 1556 1556 1557 1558 1559 1560 1561 1562 1563 1564 1565 1566 1566 1567 1567 1568 1568 1569 1569 1570 1570 1570 1570 1571 1571 1571 1571 1571 1571 1571 1572 1572 1572 1571 1571 1571 1571 1570 1570 1570 1569 1569 1567 1567 1566 1565 1564
1506 1507 1508 1510 1511 1511 1513 1514 1516 1517 1518 1520 1522 1523 1524 1525 1526 1528 1529 1531 1532 1534 1535 1536 1537 1538 1538 1539 1540 1542 1543 1545 1546 1546 1548 1549 1551 1551 1552 1553 1554 1555 1556 1557 1558 1559 1560 1561 1562 1563 1564 1565 1565 1566 1566 1566 1567 1567 1568 1568 1568 1569 1569 1569 1569 1570 1570 1570 1570 1570 1570 1570 1570 1570 1570 1569 1569 1568 1567 1566 1565 1564 1564 1563 1562
1502 1503 1503 1505 1506 1507 1508 1509 1511 1513 1513 1515 1517 1518 1519 1520 1522 1523 1524 1526 1527 1529 1530 1531 1532 1533 1534 1535 1536 1538 1539 1540 1541 1542 1544 1546 1547 1548 1550 1551 1552 1552 1553 1554 1555 1556 1557 1558 1559 1560 1561 1562 1563 1563 1564 1564 1564 1565 1565 1566 1566 1567 1568 1568 1568 1568 1568 1568 1568 1569 1569 1569 1569 1569 1569 1568 1567 1566 1565 1564 1563 1562 1561 1560 1560
1497 1499 1499 1500 1501 1502 1504 1505 1506 1507 1508 1510 1512 1513 1514 1515 1517 1518 1519 1521 1522 1524 1525 1526 1528 1528 1530 1531 1532 1534 1535 1536 1537 1539 1541 1542 1544 1546 1547 1548 1549 1549 1550 1551 1552 1553 1554 1555 1556 1557 1558 1559 1559 1560 1561 1562 1562 1563 1563 1564 1565 1565 1566 1567 1567 1567 1567 1567 1567 1567 1567 1567 1568 1568 1567 1567 1566 1565 1563 1562 1561 1560 1559 1558 1557
1493 1495 1496 1496 1497 1499 1500 1500 1502 1503 1504 1506 1507 1508 1509 1511 1512 1513 1514 1516 1518 1519 1521 1522 1523 1524 1526 1527 1528 1530 1531 1532 1533 1535 1537 1539 1541 1542 1543 1545 1546 1547 1547 1548 1549 1550 1551 1552 1553 1554 1555 1555 1556 1557 1558 1559 1560 1560 1561 1562 1563 1564 1565 1565 1566 1566 1565 1565 1565 1565 1565 1566 1566 1566 1566 1565 1564 1563 1562 1560 1559 1558 1557 1556 1555
1489 1490 1491 1492 1493 1494 1495 1496 1497 1498 1499 1501 1502 1503 1505 1506 1507 1508 1510 1511 1513 1515 1516 1517 1518 1520 1521 1522 1524 1525 1526 1528 1529 1531 1533 1535 1537 1538 1540 1542 1543 1544 1545 1546 1547 1548 1549 1550 1550 1551 1551 1552 1553 1553 1555 1556 1557 1558 1559 1560 1561 1562 1563 1564 1564 1564 1564 1564 1563 1564 1564 1564 1564 1564 1564 1563 1562 1562 1561 1559 1558 1557 1555 1554 1553
1485 1485 1486 1488 1489 1489 1490 1491 1492 1493 1494 1495 1497 1498 1500 1501 1503 1504 1505 1507 1508 1510 1511 1512 1514 1515 1516 1517 1519 1521 1522 1524 1525 1527 1529 1531 1534 1535 1537 1539 1540 1542 1543 1543 1544 1545 1546 1547 1547 1548 1548 1549 1550 1551 1552 1553 1555 1556 1557 1559 1560 1561 1562 1562 1562 1562 1562 1562 1562 1562 1562 1562 1562 1562 1562 1561 1561 1560 1559 1558 1557 1556 1555 1553 1552
1480 1480 1482 1484 1485 1485 1486 1486 1487 1488 1489 1490 1492 1494 1495 1496 1498 1499 1501 1502 1503 1504 1506 1507 1509 1510 1511 1513 1515 1516 1518 1519 1521 1523 1525 1528 1530 1531 1533 1536 1537 1539 1540 1540 1541 1542 1543 1544 1544 1545 1546 1547 1547 1548 1550 1551 1553 1554 1556 1557 1558 1559 1560 1560 1561 1561 1561 1561 1561 1560 1561 1561 1561 1560 1560 1560 1559 1558 1558 1557 1556 1555 1554 1553 1551
1476 1476 1479 1480 1481 1483 1483 1483 1484 1484 1485 1486 1488 1489 1490 1491 1492 1493 1495 1496 1497 1499 1500 1502 1503 1505 1507 1508 1510 1512 1514 1516 1517 1519 1522 1524 1525 1527 1529 1532 1533 1535 1536 1537 1538 1539 1540 1541 1541 1542 1543 1544 1545 1546 1548 1549 1551 1552 1554 1555 1557 1557 1558 1559 1559 1559 1559 1559 1559 1559 1559 1559 1559 1558 1558 1558 1557 1557 1556 1556 1555 1554 1553 1552 1550
1473 1472 1474 1476 1478 1480 1480 1481 1481 1481 1482 1482 1483 1484 1485 1486 1486 1487 1489 1490 1492 1493 1494 1497 1498 1500 1502 1504 1506 1508 1510 1512 1514 1515 1517 1519 1521 1523 1525 1527 1529 1531 1533 1533 1534 1535 1536 1537 1538 1539 1540 1541 1543 1544 1545 1547 1548 1550 1552 1554 1555 1556 1557 1557 1558 1558 1558 1557 1558 1558 1557 1557 1557 1556 1556 1556 1556 1555 1555 1554 1553 1552 1551 1550 1549
1470 1470 1470 1471 1474 1476 1477 1479 1479 1479 1479 1479 1479 1480 1480 1481 1481 1482 1483 1485 1486 1487 1489 1492 1494 1496 1498 1499 1501 1503 1505 1508 1510 1511 1513 1515 1517 1519 1521 1523 1525 1527 1529 1530 1531 1532 1534 1535 1536 1536 1538 1539 1540 1541 1543 1545 1547 1548 1550 1552 1553 1554 1555 1555 1556 1556 1556 1556 1556 1556 1556 1555 1555 1555 1555 1554 1554 1554 1553 1553 1552 1551 1550 1548 1547
1468 1467 1467 1467 1469 1471 1473 1475 1475 1475 1476 1476 1476 1476 1476 1476 1477 1477 1478 1480 1481 1483 1485 1488 1489 1491 1493 1495 1497 1499 1501 1504 1505 1507 1509 1511 1513 1515 1517 1519 1521 1524 1525 1526 1528 1529 1531 1532 1533 1534 1535 1537 1538 1539 1541 1543 1545 1546 1548 1549 1550 1552 1552 1553 1554 1554 1554 1554 1554 1554 1554 1553 1553 1553 1553 1553 1552 1552 1551 1551 1550 1549 1548 1546 1544
1465 1464 1464 1464 1464 1466 1468 1469 1471 1471 1472 1472 1472 1472 1472 1472 1473 1474 1475 1477 1478 1480 1482 1484 1486 1488 1489 1491 1493 1495 1497 1500 1501 1503 1505 1507 1509 1511 1513 1516 1518 1519 1521 1523 1524 1526 1528 1529 1530 1531 1532 1534 1535 1537 1539 1541 1543 1544 1545 1547 1548 1549 1550 1551 1551 1552 1552 1552 1552 1552 1552 1551 1551 1551 1551 1551 1551 1550 1550 1549 1548 1547 1546 1544 1542
1462 1462 1461 1461 1461 1462 1463 1464 1466 1467 1467 1468 1468 1468 1469 1470 1471 1472 1473 1475 1477 1478 1480 1482 1483 1484 1486 1488 1489 1491 1493 1495 1497 1499 1501 1503 1506 1508 1510 1512 1514 1516 1517 1519 1521 1523 1524 1525 1527 1528 1529 1531 1533 1535 1537 1539 1541 1542 1543 1544 1546 1547 1548 1548 1549 1549 1550 1550 1550 1550 1550 1550 1550 1550 1550 1549 1549 1548 1548 1547 1546 1545 1544 1542 1541
1459 1458 1458 1459 1459 1459 1460 1461 1462 1464 1465 1466 1466 1466 1467 1468 1469 1470 1471 1473 1475 1476 1478 1479 1480 1481 1482 1484 1485 1487 1489 1491 1493 1495 1497 1500 1502 1504 1506 1508 1510 1512 1514 1516 1518 1520 1521 1522 1523 1525 1526 1528 1531 1533 1535 1537 1538 1540 1541 1542 1543 1544 1545 1546 1547 1547 1548 1548 1548 1548 1548 1548 1548 1548 1548 1548 1547 1547 1546 1545 1544 1543 1542 1541 1539
1457 1456 1456 1456 1456 1457 1458 1459 1460 1462 1464 1465 1465 1466 1466 1467 1468 1468 1469 1471 1472 1473 1475 1475 1477 1478 1478 1480 1481 1483 1485 1487 1489 1492 1494 1496 1498 1500 1503 1505 1507 1509 1511 1513 1515 1516 1518 1519 1521 1522 1524 1526 1529 1531 1533 1535 1536 1537 1539 1540 1541 1542 1543 1544 1545 1545 1545 1546 1546 1546 1546 1547 1547 1546 1546 1546 1545 1545 1544 1543 1542 1541 1540 1539 1537
1457 1455 1455 1455 1455 1456 1457 1458 1460 1461 1463 1464 1465 1465 1466 1466 1466 1466 1467 1468 1469 1470 1471 1472 1473 1474 1475 1477 1478 1480 1482 1484 1486 1488 1490 1492 1495 1497 1499 1501 1504 1506 1508 1510 1512 1514 1515 1517 1519 1520 1522 1524 1527 1529 1531 1533 1534 1535 1536 1538 1539 1540 1541 1542 1543 1543 1543 1544 1544 1544 1545 1545 1545 1545 1544 1544 1543 1542 1542 1541 1540 1539 1538 1537 1535
1456 1455 1454 1454 1454 1455 1457 1458 1459 1460 1461 1462 1462 1463 1463 1464 1464 1464 1464 1465 1466 1466 1467 1468 1469 1471 1472 1474 1476 1477 1479 1481 1483 1485 1487 1489 1491 1493 1495 1498 1500 1502 1505 1508 1509 1511 1513 1515 1516 1518 1520 1522 1525 1527 1529 1530 1532 1533 1534 1535 1537 1538 1539 1540 1541 1541 1542 1542 1542 1542 1543 1543 1543 1543 1542 1542 1541 1540 1539 1538 1538 1536 1535 1534 1533
1457 1456 1454 1453 1454 1455 1456 1457 1458 1458 1459 1460 1460 1461 1461 1461 1461 1461 1461 1462 1463 1463 1464 1465 1466 1467 1469 1470 1472 1474 1476 1478 1480 1481 1484 1486 1488 1490 1492 1495 1497 1499 1502 1505 1506 1508 1510 1512 1514 1515 1518 1520 1522 1524 1526 1527 1529 1530 1532 1533 1534 1536 1537 1538 1538 1539 1540 1540 1540 1541 1541 1541 1541 1541 1540 1540 1539 1538 1537 1536 1535 1534 1533 1532 1531
1457 1456 1455 1454 1454 1454 1455 1456 1456 1457 1457 1457 1458 1459 1459 1459 1459 1459 1460 1460 1460 1461 1461 1462 1463 1464 1466 1467 1469 1471 1473 1475 1476 1478 1480 1482 1484 1487 1490 1492 1494 1496 1499 1502 1504 1506 1508 1510 1511 1513 1515 1518 1520 1522 1524 1525 1526 1528 1529 1531 1532 1534 1535 1536 1536 1537 1538 1538 1538 1539 1539 1539 1539 1538 1538 1537 1537 1536 1535 1534 1533 1532 1531 1530 1528
1456 1456 1455 1454 1454 1454 1454 1455 1455 1455 1456 1456 1456 1457 1457 1457 1457 1458 1458 1458 1458 1459 1459 1459 1460 1461 1463 1465 1466 1468 1470 1472 1474 1475 1478 1480 1482 1485 1487 1489 1491 1494 1496 1499 1502 1504 1506 1508 1509 1511 1513 1516 1518 1520 1522 1524 1525 1527 1528 1529 1530 1532 1533 1533 1534 1535 1535 1536 1536 1536 1536 1536 1536 1536 1536 1535 1534 1533 1532 1531 1530 1529 1528 1527 1525
1455 1455 1455 1454 1455 1454 1454 1454 1454 1454 1454 1454 1455 1455 1455 1455 1455 1456 1456 1456 1456 1457 1457 1458 1458 1460 1461 1463 1465 1467 1468 1470 1472 1474 1476 1478 1480 1482 1484 1486 1489 1491 1494 1496 1499 1501 1503 1505 1507 1509 1511 1514 1516 1518 1520 1522 1523 1525 1527 1527 1528 1530 1530 1531 1532 1533 1533 1534 1534 1534 1534 1534 1534 1533 1533 1532 1531 1531 1530 1529 1528 1527 1526 1524 1522
1452 1454 1454 1453 1454 1454 1454 1453 1453 1452 1452 1452 1452 1452 1453 1453 1453 1453 1454 1454 1454 1455 1455 1456 1457 1458 1460 1462 1464 1466 1467 1469 1471 1473 1474 1476 1478 1479 1482 1484 1486 1489 1492 1494 1496 1498 1500 1503 1505 1508 1510 1512 1514 1516 1518 1520 1521 1523 1524 1525 1526 1527 1528 1529 1530 1530 1531 1531 1532 1532 1531 1531 1531 1530 1530 1530 1529 1528 1527 1527 1526 1525 1523 1522 1520
1450 1452 1452 1452 1451 1452 1452 1451 1451 1451 1451 1450 1449 1449 1450 1450 1451 1451 1451 1452 1452 1453 1454 1454 1455 1457 1459 1461 1464 1465 1466 1468 1470 1472 1474 1475 1477 1479 1481 1483 1485 1487 1489 1491 1493 1496 1498 1500 1503 1505 1508 1510 1512 1514 1516 1518 1520 1521 1522 1523 1524 1525 1526 1527 1527 1528 1529 1529 1529 1529 1529 1529 1528 1528 1527 1527 1526 1526 1525 1525 1524 1522 1521 1519 1518
1448 1449 1450 1450 1449 1449 1450 1449 1449 1449 1448 1448 1447 1447 1448 1448 1448 1449 1449 1449 1450 1451 1452 1452 1453 1456 1457 1460 1462 1463 1465 1467 1469 1471 1473 1474 1476 1478 1480 1482 1483 1485 1487 1488 1491 1493 1495 1498 1501 1503 1506 1508 1510 1512 1514 1516 1518 1519 1520 1521 1522 1522 1523 1524 1525 1526 1527 1527 1527 1527 1526 1526 1526 1525 1525 1525 1524 1524 1523 1522 1521 1520 1518 1517 1516
1444 1445 1446 1447 1447 1447 1447 1446 1446 1446 1445 1446 1445 1445 1445 1445 1445 1446 1446 1447 1448 1449 1450 1451 1452 1453 1455 1457 1460 1462 1464 1466 1468 1470 1471 1473 1475 1476 1478 1479 1481 1482 1484 1486 1488 1491 1493 1496 1498 1501 1504 1506 1508 1510 1512 1514 1515 1517 1518 1519 1519 1520 1521 1522 1523 1524 1524 1524 1524 1524 1524 1524 1523 1523 1523 1522 1522 1522 1521 1520 1519 1518 1516 1515 1514
1440 1442 1443 1444 1444 1444 1445 1444 1444 1444 1443 1443 1443 1443 1443 1443 1444 1444 1445 1446 1447 1447 1448 1449 1450 1452 1453 1455 1457 1459 1462 1463 1465 1467 1469 1470 1472 1473 1475 1477 1479 1480 1482 1484 1487 1489 1491 1494 1496 1499 1502 1504 1506 1508 1510 1512 1513 1514 1515 1516 1517 1518 1519 1520 1521 1521 1522 1522 1522 1522 1521 1521 1521 1521 1520 1520 1520 1519 1519 1518 1517 1515 1514 1513 1511
1437 1439 1439 1440 1441 1441 1441 1442 1441 1442 1441 1441 1441 1441 1441 1441 1442 1442 1443 1444 1445 1446 1447 1448 1449 1450 1451 1453 1455 1457 1459 1460 1462 1464 1465 1467 1469 1470 1472 1474 1476 1478 1479 1482 1484 1487 1489 1492 1494 1497 1500 1502 1504 1506 1508 1509 1511 1512 1513 1514 1514 1515 1516 1517 1518 1519 1519 1519 1519 1519 1519 1519 1519 1518 1518 1518 1517 1517 1516 1515 1514 1513 1512 1511 1509
1434 1435 1435 1437 1437 1437 1438 1438 1438 1439 1439 1439 1439 1439 1439 1440 1440 1440 1441 1442 1443 1444 1446 1446 1448 1449 1450 1452 1453 1455 1456 1458 1459 1461 1462 1464 1466 1468 1470 1472 1474 1475 1478 1480 1482 1485 1488 1490 1493 1496 1498 1500 1502 1504 1506 1507 1509 1510 1511 1511 1512 1513 1514 1515 1516 1516 1517 1517 1517 1517 1517 1517 1517 1516 1516 1515 1515 1514 1513 1512 1511 1510 1509 1508 1507
1430 1431 1432 1432 1433 1433 1434 1434 1435 1436 1437 1437 1437 1437 1437 1438 1438 1439 1439 1439 1441 1443 1444 1446 1447 1448 1449 1450 1451 1452 1454 1455 1457 1459 1461 1463 1464 1466 1468 1470 1472 1474 1476 1478 1481 1483 1485 1488 1491 1494 1496 1498 1501 1502 1504 1505 1506 1507 1508 1509 1510 1511 1512 1513 1513 1514 1514 1514 1515 1515 1515 1515 1515 1514 1514 1513 1512 1511 1510 1509 1508 1507 1506 1505 1504
1426 1426 1427 1427 1428 1429 1430 1431 1432 1433 1434 1434 1435 1435 1435 1436 1436 1437 1437 1438 1439 1441 1442 1444 1445 1446 1447 1448 1449 1451 1452 1454 1455 1457 1459 1461 1462 1464 1466 1468 1469 1472 1474 1476 1478 1481 1483 1486 1489 1491 1494 1496 1498 1500 1501 1502 1504 1505 1506 1507 1508 1508 1509 1510 1510 1511 1511 1512 1512 1512 1512 1513 1512 1512 1511 1511 1510 1509 1507 1506 1505 1504 1503 1502 1501
1422 1422 1422 1423 1424 1425 1426 1428 1429 1429 1431 1432 1432 1433 1433 1434 1434 1434 1435 1436 1437 1439 1440 1441 1442 1443 1445 1446 1448 1449 1451 1452 1454 1455 1457 1459 1460 1462 1464 1465 1467 1469 1471 1474 1476 1479 1481 1484 1486 1488 1491 1493 1495 1497 1499 1500 1501 1502 1503 1505 1505 1506 1507 1507 1508 1508 1509 1509 1509 1510 1510 1510 1510 1509 1509 1508 1507 1506 1504 1503 1502 1501 1500 1499 1498
1419 1419 1419 1420 1421 1422 1423 1425 1426 1427 1428 1428 1429 1430 1431 1431 1432 1432 1433 1434 1435 1436 1438 1439 1440 1441 1443 1444 1446 1447 1449 1450 1452 1453 1454 1456 1457 1459 1461 1462 1464 1466 1469 1471 1474 1476 1479 1481 1483 1486 1488 1490 1492 1494 1496 1497 1498 1500 1501 1502 1503 1503 1504 1504 1505 1506 1506 1506 1507 1507 1507 1508 1507 1507 1506 1505 1504 1502 1501 1500 1500 1499 1497 1496 1495
1417 1418 1418 1418 1419 1420 1421 1422 1423 1424 1425 1425 1426 1427 1428 1429 1430 1430 1431 1432 1433 1434 1435 1436 1437 1439 1440 1442 1443 1445 1446 1447 1449 1450 1451 1453 1454 1456 1458 1460 1462 1464 1467 1469 1471 1474 1476 1478 1480 1482 1484 1487 1489 1491 1493 1494 1496 1497 1498 1499 1500 1500 1501 1502 1502 1503 1503 1503 1504 1505 1505 1505 1504 1504 1503 1502 1500 1499 1498 1498 1497 1496 1494 1493 1492
1416 1416 1416 1417 1418 1419 1420 1421 1421 1422 1423 1424 1425 1426 1427 1427 1428 1429 1429 1430 1431 1432 1432 1434 1435 1436 1438 1439 1441 1442 1443 1445 1446 1448 1449 1450 1452 1454 1456 1458 1460 1462 1464 1466 1468 1471 1473 1475 1477 1479 1481 1484 1486 1488 1490 1491 1493 1495 1496 1496 1497 1498 1498 1499 1499 1500 1500 1501 1501 1502 1502 1502 1501 1500 1499 1498 1497 1496 1495 1495 1494 1492 1491 1490 1489
1415 1415 1415 1416 1417 1417 1419 1419 1420 1421 1423 1423 1424 1425 1426 1426 1426 1427 1428 1428 1429 1430 1430 1432 1433 1434 1435 1437 1438 1440 1441 1442 1444 1446 1447 1448 1450 1452 1453 1455 1457 1459 1461 1463 1465 1467 1470 1472 1474 1476 1479 1481 1482 1484 1487 1489 1490 1491 1492 1493 1494 1495 1495 1496 1497 1497 1497 1498 1499 1499 1499 1498 1498 1497 1496 1495 1493 1493 1492 1491 1490 1489 1488 1487 1486
1413 1414 1414 1415 1415 1416 1418 1418 1420 1421 1422 1422 1424 1424 1425 1425 1426 1426 1427 1427 1428 1429 1429 1430 1431 1432 1434 1435 1436 1437 1439 1440 1442 1443 1445 1446 1448 1449 1451 1453 1455 1457 1459 1461 1463 1465 1468 1470 1472 1474 1476 1478 1479 1481 1483 1486 1487 1488 1489 1490 1491 1492 1493 1493 1493 1493 1494 1495 1496 1496 1495 1495 1494 1493 1492 1491 1491 1490 1489 1488 1487 1486 1485 1484 1483
1412 1413 1414 1415 1415 1416 1417 1418 1419 1420 1421 1422 1423 1423 1424 1425 1425 1426 1427 1427 1428 1428 1428 1429 1430 1431 1432 1432 1433 1435 1436 1438 1439 1440 1442 1443 1445 1447 1448 1450 1452 1454 1456 1458 1461 1463 1465 1467 1469 1471 1472 1474 1476 1478 1480 1482 1483 1484 1486 1487 1488 1488 1489 1489 1489 1490 1491 1491 1492 1491 1491 1491 1490 1490 1489 1488 1488 1487 1486 1485 1484 1483 1482 1481 1480
1411 1412 1413 1414 1415 1416 1417 1418 1418 1419 1420 1421 1421 1422 1423 1424 1425 1426 1426 1426 1427 1427 1428 1428 1429 1429 1430 1431 1431 1433 1434 1435 1436 1437 1438 1440 1441 1443 1444 1446 1448 1451 1452 1454 1456 1458 1460 1463 1465 1467 1468 1470 1472 1474 1476 1478 1479 1481 1482 1483 1483 1484 1484 1485 1486 1486 1487 1487 1487 1487 1487 1486 1486 1486 1486 1485 1485 1484 1483 1482 1481 1480 1479 1478 1477
1409 1411 1412 1413 1414 1415 1416 1417 1418 1418 1419 1420 1420 1421 1422 1423 1424 1425 1425 1426 1427 1427 1427 1427 1427 1428 1428 1429 1430 1431 1431 1432 1434 1435 1436 1437 1439 1440 1442 1444 1446 1448 1450 1452 1454 1455 1458 1460 1462 1463 1465 1466 1468 1470 1473 1475 1476 1477 1478 1478 1479 1479 1480 1481 1482 1482 1482 1482 1482 1482 1483 1482 1482 1482 1482 1482 1481 1480 1480 1479 1478 1477 1475 1474 1473
1408 1409 1411 1412 1413 1414 1415 1416 1417 1417 1418 1418 1419 1420 1420 1421 1422 1423 1424 1425 1425 1426 1426 1426 1426 1427 1427 1427 1428 1429 1430 1430 1431 1432 1434 1435 1436 1438 1439 1441 1444 1446 1448 1449 1452 1454 1457 1459 1460 1461 1462 1464 1465 1469 1471 1472 1472 1473 1474 1474 1475 1475 1476 1477 1477 1477 1477 1477 1478 1478 1478 1478 1478 1478 1478 1478 1477 1477 1476 1476 1475 1474 1472 1471 1470
1407 1408 1409 1411 1412 1413 1414 1415 1415 1416 1416 1417 1417 1418 1418 1419 1420 1421 1422 1423 1424 1424 1425 1425 1425 1426 1426 1426 1427 1427 1428 1429 1429 1430 1431 1433 1434 1435 1437 1439 1441 1443 1444 1446 1449 1451 1454 1456 1457 1458 1460 1461 1463 1466 1468 1468 1468 1469 1470 1470 1471 1471 1471 1472 1472 1472 1472 1473 1473 1474 1474 1474 1474 1474 1474 1474 1473 1473 1473 1472 1471 1471 1470 1468 1467